When you browse on this site, cookies collect data to enhance your experience and personalize the content and advertising you see.
Visit our Privacy Policy to learn more. By continuing to use the site, you agree to this use of cookies and data.
  • In Czech Republic
  • List of Countries
  • For 7 days
  • Water Temperature
  • Satellite Maps
  • Weather Map
  • Weather Widgets
  • user-avatar
    Login

    Hourly Weather Asadabad

    Today, 21 March, Thursday

    Time Temperature Precipitation Wind Pressure Humidity
    00:00 +8°C° 0 mm 2 mps 659 mmHg 62%
    01:00 +8°C° 0 mm 3 mps 659 mmHg 60%
    02:00 +8°C° 0 mm 3 mps 659 mmHg 58%
    03:00 +7°C° 0 mm 3 mps 659 mmHg 56%
    04:00 +7°C° 0 mm 3 mps 659 mmHg 54%
    05:00 +7°C° 0 mm 3 mps 658 mmHg 47%
    06:00 +8°C° 0 mm 3 mps 658 mmHg 45%
    07:00 +9°C° 0 mm 3 mps 659 mmHg 43%
    08:00 +10°C° 0 mm 3 mps 659 mmHg 41%
    09:00 +12°C° 0 mm 2 mps 660 mmHg 39%
    10:00 +14°C° 0 mm 1 mps 660 mmHg 37%
    11:00 +15°C° 0 mm 1 mps 659 mmHg 36%
    12:00 +16°C° 0 mm 1 mps 659 mmHg 36%
    13:00 +16°C° 0 mm 1 mps 659 mmHg 35%
    14:00 +18°C° 0 mm 1 mps 659 mmHg 35%
    15:00 +16°C° 0.1 mm 1 mps 659 mmHg 35%
    16:00 +16°C° 0.1 mm 1 mps 659 mmHg 36%
    17:00 +16°C° 0.1 mm 1 mps 659 mmHg 36%
    18:00 +15°C° 0.1 mm 1 mps 660 mmHg 40%
    19:00 +13°C° 0.1 mm 1 mps 660 mmHg 44%
    20:00 +12°C° 0.1 mm 2 mps 660 mmHg 48%
    21:00 +12°C° 0 mm 2 mps 660 mmHg 48%
    22:00 +10°C° 0 mm 2 mps 660 mmHg 48%
    23:00 +9°C° 0 mm 3 mps 660 mmHg 47%

    Tomorrow, 22 March, Friday

    Time Temperature Precipitation Wind Pressure Humidity
    00:00 +9°C° 0 mm 3 mps 660 mmHg 46%
    01:00 +9°C° 0 mm 3 mps 660 mmHg 44%
    02:00 +8°C° 0 mm 3 mps 660 mmHg 43%
    03:00 +8°C° 0 mm 3 mps 660 mmHg 42%
    04:00 +8°C° 0 mm 3 mps 660 mmHg 41%
    05:00 +7°C° 0 mm 3 mps 660 mmHg 40%
    06:00 +8°C° 0 mm 3 mps 660 mmHg 38%
    07:00 +9°C° 0 mm 3 mps 661 mmHg 36%
    08:00 +12°C° 0 mm 2 mps 661 mmHg 34%
    09:00 +13°C° 0 mm 2 mps 661 mmHg 32%
    10:00 +14°C° 0 mm 2 mps 661 mmHg 30%
    11:00 +16°C° 0 mm 1 mps 661 mmHg 27%
    12:00 +16°C° 0 mm 1 mps 661 mmHg 27%
    13:00 +18°C° 0 mm 1 mps 661 mmHg 27%
    14:00 +18°C° 0 mm 1 mps 661 mmHg 26%
    15:00 +18°C° 0 mm 1 mps 660 mmHg 27%
    16:00 +18°C° 0 mm 1 mps 660 mmHg 27%
    17:00 +18°C° 0 mm 1 mps 660 mmHg 28%
    18:00 +16°C° 0 mm 1 mps 660 mmHg 32%
    19:00 +14°C° 0 mm 1 mps 660 mmHg 36%
    20:00 +13°C° 0 mm 2 mps 660 mmHg 41%
    21:00 +13°C° 0 mm 2 mps 660 mmHg 39%
    22:00 +13°C° 0 mm 2 mps 660 mmHg 38%
    23:00 +12°C° 0 mm 3 mps 661 mmHg 37%

    Day after tomorrow, 23 March, Saturday

    Time Temperature Precipitation Wind Pressure Humidity
    00:00 +11°C° 0 mm 3 mps 660 mmHg 38%
    01:00 +11°C° 0 mm 3 mps 660 mmHg 39%
    02:00 +12°C° 0 mm 2 mps 660 mmHg 40%
    03:00 +12°C° 0 mm 2 mps 660 mmHg 41%
    04:00 +10°C° 0 mm 3 mps 660 mmHg 42%
    05:00 +10°C° 0 mm 3 mps 660 mmHg 44%
    06:00 +11°C° 0 mm 3 mps 660 mmHg 42%
    07:00 +11°C° 0 mm 3 mps 660 mmHg 41%
    08:00 +12°C° 0 mm 3 mps 660 mmHg 39%
    09:00 +14°C° 0 mm 2 mps 660 mmHg 36%
    10:00 +15°C° 0 mm 2 mps 660 mmHg 33%
    11:00 +18°C° 0 mm 1 mps 661 mmHg 30%
    12:00 +18°C° 0 mm 1 mps 660 mmHg 30%
    13:00 +18°C° 0 mm 1 mps 660 mmHg 31%
    14:00 +18°C° 0 mm 1 mps 660 mmHg 32%
    15:00 +18°C° 0 mm 1 mps 659 mmHg 34%
    16:00 +16°C° 0 mm 1 mps 659 mmHg 36%
    17:00 +16°C° 0 mm 1 mps 659 mmHg 39%
    18:00 +15°C° 0 mm 2 mps 659 mmHg 41%
    19:00 +14°C° 0 mm 2 mps 659 mmHg 43%
    20:00 +13°C° 0 mm 2 mps 659 mmHg 46%
    21:00 +12°C° 0 mm 2 mps 659 mmHg 45%
    22:00 +11°C° 0 mm 3 mps 659 mmHg 44%
    23:00 +10°C° 0 mm 3 mps 659 mmHg 43%

    24 March, Sunday

    Time Temperature Precipitation Wind Pressure Humidity
    00:00 +10°C° 0 mm 3 mps 659 mmHg 43%
    01:00 +10°C° 0 mm 3 mps 658 mmHg 42%
    02:00 +9°C° 0 mm 3 mps 658 mmHg 42%
    03:00 +9°C° 0 mm 3 mps 658 mmHg 42%
    04:00 +9°C° 0 mm 3 mps 658 mmHg 42%
    05:00 +8°C° 0 mm 3 mps 658 mmHg 42%
    06:00 +10°C° 0 mm 3 mps 658 mmHg 40%
    07:00 +11°C° 0 mm 3 mps 659 mmHg 37%
    08:00 +13°C° 0 mm 2 mps 659 mmHg 35%
    09:00 +15°C° 0 mm 2 mps 660 mmHg 32%
    10:00 +16°C° 0 mm 1 mps 660 mmHg 30%
    11:00 +18°C° 0 mm 1 mps 660 mmHg 27%
    12:00 +19°C° 0 mm 1 mps 660 mmHg 27%
    13:00 +20°C° 0 mm 1 mps 660 mmHg 26%
    14:00 +19°C° 0 mm 2 mps 659 mmHg 26%
    15:00 +20°C° 0 mm 1 mps 659 mmHg 27%
    16:00 +20°C° 0 mm 1 mps 659 mmHg 27%
    17:00 +20°C° 0 mm 1 mps 658 mmHg 28%
    18:00 +18°C° 0 mm 1 mps 659 mmHg 31%
    19:00 +16°C° 0 mm 2 mps 659 mmHg 35%
    20:00 +14°C° 0 mm 2 mps 659 mmHg 39%
    21:00 +14°C° 0 mm 2 mps 659 mmHg 38%
    22:00 +12°C° 0 mm 3 mps 659 mmHg 38%
    23:00 +12°C° 0 mm 3 mps 659 mmHg 37%

    25 March, Monday

    Time Temperature Precipitation Wind Pressure Humidity
    00:00 +11°C° 0 mm 3 mps 659 mmHg 36%
    01:00 +11°C° 0 mm 3 mps 659 mmHg 35%
    02:00 +11°C° 0 mm 3 mps 658 mmHg 35%
    03:00 +10°C° 0 mm 3 mps 658 mmHg 34%
    04:00 +10°C° 0 mm 3 mps 658 mmHg 34%
    05:00 +10°C° 0 mm 3 mps 658 mmHg 33%
    06:00 +11°C° 0 mm 3 mps 658 mmHg 32%
    07:00 +13°C° 0 mm 3 mps 659 mmHg 30%
    08:00 +15°C° 0 mm 2 mps 659 mmHg 29%
    09:00 +16°C° 0 mm 2 mps 660 mmHg 26%
    10:00 +19°C° 0 mm 1 mps 660 mmHg 22%
    11:00 +20°C° 0 mm 1 mps 660 mmHg 19%
    12:00 +21°C° 0 mm 1 mps 660 mmHg 19%
    13:00 +22°C° 0 mm 1 mps 660 mmHg 19%
    14:00 +21°C° 0 mm 2 mps 660 mmHg 20%
    15:00 +21°C° 0 mm 2 mps 660 mmHg 21%
    16:00 +21°C° 0 mm 2 mps 659 mmHg 22%
    17:00 +21°C° 0 mm 2 mps 659 mmHg 23%
    18:00 +20°C° 0 mm 1 mps 659 mmHg 26%
    19:00 +19°C° 0 mm 1 mps 660 mmHg 30%
    20:00 +18°C° 0 mm 1 mps 660 mmHg 34%
    21:00 +16°C° 0 mm 1 mps 660 mmHg 34%
    22:00 +16°C° 0 mm 2 mps 660 mmHg 33%
    23:00 +15°C° 0 mm 2 mps 660 mmHg 33%

    26 March, Tuesday

    Time Temperature Precipitation Wind Pressure Humidity
    00:00 +15°C° 0 mm 2 mps 660 mmHg 33%
    01:00 +13°C° 0 mm 3 mps 659 mmHg 34%
    02:00 +12°C° 0 mm 3 mps 659 mmHg 35%
    03:00 +12°C° 0 mm 3 mps 659 mmHg 35%
    04:00 +12°C° 0 mm 3 mps 658 mmHg 35%
    05:00 +11°C° 0 mm 3 mps 658 mmHg 35%
    06:00 +13°C° 0 mm 3 mps 659 mmHg 33%
    07:00 +15°C° 0 mm 2 mps 660 mmHg 32%
    08:00 +17°C° 0 mm 2 mps 661 mmHg 31%
    09:00 +18°C° 0 mm 2 mps 661 mmHg 28%
    10:00 +21°C° 0 mm 1 mps 661 mmHg 24%
    11:00 +22°C° 0 mm 1 mps 661 mmHg 21%
    12:00 +23°C° 0 mm 1 mps 661 mmHg 21%
    13:00 +24°C° 0 mm 1 mps 660 mmHg 21%
    14:00 +24°C° 0 mm 2 mps 660 mmHg 21%
    15:00 +24°C° 0 mm 2 mps 660 mmHg 22%
    16:00 +24°C° 0 mm 2 mps 660 mmHg 23%
    17:00 +24°C° 0 mm 2 mps 659 mmHg 24%
    18:00 +22°C° 0 mm 1 mps 660 mmHg 29%
    19:00 +20°C° 0 mm 1 mps 660 mmHg 35%
    20:00 +17°C° 0 mm 0 mps 660 mmHg 41%
    21:00 +18°C° 0 mm 1 mps 660 mmHg 39%
    22:00 +18°C° 0 mm 1 mps 660 mmHg 38%
    23:00 +18°C° 0 mm 1 mps 660 mmHg 37%
    Show more